SCP
-0 0 0 0 -0 -0 -0 -0 -0 -0 -0 -0 -0 0 -0 -0 0 0 0 0 0 0 0 0 0 0 0 0 0 0 0 0 0 0 0 0 0 0 -0 0 0 0 0 0 0 0 0 0 0 0 0 0 0 0
-0 0 -0 0 0 -0 -0 -0 -0 -0 -0 -0 0 0 0 0 0 0 0 0 0 0 0 0 0 0 0 0 0 0 0 0 0 0 0 0 0 0 0 0 0 0 0 0 0 0 0 0 0 0 0 0 0 0
0 0 -0 0 0 -0 -0 -0 -0 -0 0 0 0 0 0 0 0 0 0 0 0 0 0 0 0 0 0 0 0 0 0 0 0 0 0 0 -0 -0 0 0 0 0 0 0 0 0 0 0 0 0 0 0 0 0
0 0 0 0 0 0 -0 -0 0 0 0 0 0 0 0 0 0 0 0 0 0 0 0 0 0 0 0 0 0 0 0 0 0 0 0 0 -0 0 0 0 0 0 0 0 0 0 0 0 0 0 0 0 0 0
0 0 0 0 -0 0 0 0 0 0 0 0 0 0 0 0 0 0 0 0 0 0 0 0 0 0 0 0 0 0 0 0 0 0 0 0 0 0 0 0 0 0 0 0 0 0 0 0 0 0 0 0 0 0
0 0 0 -0 -0 -0 0 0 0 -0 0 0 0 0 0 0 0 0 0 0 0 0 0 0 0 0 0 0 0 0 0 0 0 0 0 0 0 0 0 0 0 0 0 0 0 0 0 0 0 0 0 0 0 0
-0 0 0 -0 -0 -0 -0 -0 -0 0 -0 -0 0 0 0 0 0 0 0 0 0 0 0 0 0 0 0 0 0 0 0 0 0 0 0 0 0 0 0 0 0 0 0 0 0 0 0 0 0 0 0 0 0 0
-0 -0 0 0 -0 -0 -0 -0 -0 0 -0 -0 -0 -0 -0 -0 0 0 0 0 0 0 0 0 0 0 0 0 0 0 0 0 0 0 0 0 0 0 0 0 0 0 0 0 0 0 0 0 0 0 0 0 0 0
-0 -0 -0 -0 0 0 -0 0 -0 -0 -0 -0 -0 -0 0 0 0 0 0 0 0 0 0 0 0 0 0 0 0 0 0 0 0 0 0 0 0 0 0 0 0 0 0 0 0 0 0 0 0 0 0 0 0 0
-0 -0 -0 -0 0 -0 -0 -0 -0 -0 -0 0 0 0 0 0 -0 -0 0 0 0 0 0 0 0 0 0 0 0 0 0 0 0 0 0 0 0 0 0 0 0 0 0 0 0 0 0 0 0 0 0 0 0 0
-0 -0 -0 -0 -0 0 0 0 0 0 0 0 -0 -0 0 0 0 0 0 0 0 0 0 0 0 0 0 0 0 0 0 0 0 0 0 0 0 0 0 0 0 0 0 0 0 0 0 0 0 0 0 0 0 0
-0 -0 -0 -0 0 0 0 0 0 0 0 -0 -0 0 0 0 -0 -0 0 0 0 0 0 0 0 0 0 0 0 0 0 0 0 0 0 0 0 0 0 0 0 0 0 0 0 0 0 0 0 0 0 0 0 0
-0 -0 -0 -0 -0 -0 -0 0 0 -0 0 0 0 -0 0 -0 0 -0 0 0 0 0 0 0 0 0 0 0 0 0 0 0 0 0 0 0 0 0 0 0 0 0 0 0 0 -0 -0 -0 -0 -0 -0 -0 -0 -0
0 0 0 -0 -0 0 0 -0 0 0 0 -0 -0 -0 0 0 0 0 0 0 0 0 0 0 0 0 0 0 0 0 0 0 0 0 0 0 0 0 -0 -0 0 -0 -0 -0 0 0 0 0 0 0 -0 0 0 0
-0 -0 -0 -0 0 -0 -0 -0 -0 0 0 0 0 0 0 0 0 0 0 0 0 0 0 0 0 0 0 0 0 0 0 0 0 0 0 -0 -0 -0 -0 0 0 0 0 0 0 0 0 0 0 0 -0 -0 0 0
-0 -0 -0 -0 -0 -0 -0 -0 -0 -0 0 -0 0 -0 0 0 0 0 0 0 0 -0 0 0 0 0 0 0 0 0 0 0 0 -0 -0 -0 -0 -0 -0 0 0 0 0 0 0 0 0 0 0 0 -0 -0 -0 -0
0 -0 -0 0 -0 -0 -0 -0 -0 -0 -0 0 -0 0 -0 0 0 -0 0 0 0 -0 -0 0 0 0 0 0 0 0 0 -0 -0 -0 -0 -0 0 0 0 0 0 0 0 0 0 0 0 0 0 0 0 -0 -0 0
0 0 -0 -0 0 -0 -0 -0 -0 -0 -0 0 0 0 0 0 0 0 0 0 0 0 0 0 0 0 0 0 0 -0 -0 0 0 0 0 -0 -0 -0 0 -0 -0 -0 -0 -0 0 0 0 0 0 0 0 0 0 0
0 0 -0 0 -0 0 0 0 0 0 0 0 0 0 0 0 0 0 0 -0 -0 -0 -0 0 0 0 0 0 -0 -0 -0 -0 -0 -0 -0 -0 -0 -0 -0 -0 -0 -0 0 0 0 0 0 0 0 0 0 0 0 0
0 0 0 0 0 0 0 0 0 0 0 0 0 0 0 0 0 0 0 0 0 0 0 0 0 0 0 -0 -0 -0 -0 -0 -0 -0 -0 -0 -0 0 0 0 0 0 0 0 0 0 0 0 0 0 0 0 0 0
0 0 -0 0 0 0 0 0 0 0 0 0 0 0 0 0 0 0 -0 -0 0 -0 -0 -0 -0 -0 -0 -0 -0 -0 -0 -0 -0 -0 -0 -0 0 0 0 0 0 0 0 0 0 0 0 0 0 0 0 0 0 0
0 0 0 -0 -0 0 0 0 0 0 0 0 0 0 0 0 0 0 0 0 0 -0 -0 -0 -0 -0 -0 -0 -0 -0 -0 0 0 0 0 0 0 0 0 0 0 0 0 0 0 0 0 0 0 0 0 0 0 0
-0 -0 -0 -0 -0 -0 0 0 -0 -0 -0 0 -0 -0 -0 0 0 0 0 0 0 -0 -0 -0 -0 -0 -0 -0 -0 -0 0 0 0 0 0 0 0 0 0 0 0 0 0 0 0 0 0 0 0 0 0 0 0 0
-0 0 0 0 -0 0 0 0 0 0 0 -0 -0 0 0 0 0 -0 0 0 0 0 0 0 0 0 0 -0 -0 0 0 0 0 0 0 0 0 0 0 0 0 0 0 0 0 0 0 0 0 0 0 0 0 0
0 0 0 0 0 0 0 0 0 0 0 0 0 0 0 0 0 0 0 0 0 0 0 0 0 0 0 0 -0 -0 0 0 0 0 0 0 0 0 0 0 0 0 0 0 0 0 0 0 0 0 0 0 0 0
0 0 0 0 0 0 0 0 0 0 0 0 0 0 0 0 0 0 0 0 0 0 0 0 0 0 0 0 0 0 0 0 0 0 0 0 0 0 0 0 0 0 0 0 0 0 0 0 0 0 0 0 0 0
0 0 0 0 0 0 0 0 0 0 0 0 0 0 0 0 0 0 0 0 0 0 0 0 0 0 0 0 0 0 0 0 0 0 0 0 0 0 0 0 0 0 0 0 0 0 0 0 0 0 0 0 0 0
0 0 0 0 0 0 0 0 0 0 0 0 0 0 0 -0 0 0 0 0 0 0 0 0 0 0 0 0 0 0 0 0 0 0 -0 0 0 0 0 0 0 0 0 0 0 0 0 0 0 0 0 0 0 0
0 0 0 0 0 0 0 0 0 0 0 0 0 0 0 0 0 0 0 0 0 0 0 0 0 0 0 0 0 0 0 0 0 0 0 0 0 0 0 0 0 0 0 0 0 0 0 0 0 0 0 0 0 0
0 0 0 0 0 0 0 0 0 0 0 0 0 0 0 0 0 0 0 0 0 0 0 0 0 0 0 0 0 0 0 0 0 0 0 0 0 0 0 0 0 0 0 0 0 0 0 0 0 0 0 0 0 0
0 0 0 0 0 0 0 0 0 0 0 0 0 0 0 0 0 0 0 0 0 0 0 0 0 0 0 0 0 0 0 0 0 0 0 0 0 0 0 0 0 0 0 0 0 0 0 0 0 0 0 0 0 0
0 0 0 0 0 0 0 0 0 0 0 0 0 0 0 0 0 0 0 0 0 0 0 0 0 0 0 0 0 0 0 0 0 0 0 0 0 0 0 0 0 0 0 0 0 0 0 0 0 0 0 0 0 0
0 0 0 0 0 0 0 0 0 0 0 0 0 0 0 0 0 0 0 0 0 0 0 0 0 0 0 0 0 0 0 0 0 0 0 0 0 0 0 0 0 0 0 0 0 0 0 0 0 0 0 0 0 0
Wind_Speed_500mb
79 79 86 86 79 78 72 73 92 95 118 137 134 121 117 111 86 65 50 42 27 8 14 19 30 27 18 13 8 10 10 1 1 2 3 6 4 8 5 6 12 13 18 11 9 7 10 36 9 1 12 26 26 31
70 69 73 82 88 85 90 107 123 131 137 125 116 107 106 101 85 51 42 43 30 13 10 20 20 31 48 34 14 26 10 9 14 5 2 5 3 2 8 7 9 5 5 6 8 8 14 28 35 26 26 26 27 25
64 62 64 69 83 91 100 107 107 110 108 106 104 99 96 77 60 55 42 33 15 17 15 10 7 7 24 33 46 10 10 16 12 12 6 4 4 4 4 1 8 8 24 8 9 13 22 32 30 31 29 27 25 25
59 57 57 66 72 77 87 95 97 93 97 104 100 88 81 61 43 38 42 25 13 15 8 7 6 6 12 22 32 32 10 17 21 10 4 3 4 13 6 4 10 11 20 12 13 19 29 30 29 26 23 23 24 22
50 51 53 58 67 71 78 83 85 84 86 87 78 80 54 50 36 24 26 11 13 4 9 9 20 12 9 11 16 10 26 23 10 5 3 7 9 14 3 10 12 23 13 8 6 15 9 19 21 28 24 25 26 24
46 43 46 49 55 60 65 68 73 73 72 63 58 59 46 37 38 36 15 10 12 20 10 4 4 17 24 23 21 24 21 7 9 9 10 11 14 14 6 7 18 23 21 32 12 13 15 15 20 25 22 25 29 26
46 40 41 42 48 53 55 57 60 61 59 57 58 52 32 37 35 13 11 18 11 15 7 4 4 11 13 17 11 11 11 13 9 11 11 8 15 16 7 7 18 21 14 27 26 14 11 27 12 21 23 27 28 23
46 42 36 38 41 44 48 50 52 52 52 53 48 41 25 35 27 25 30 23 23 9 7 5 3 5 22 11 5 8 8 11 23 13 11 8 10 15 10 14 16 19 7 20 26 20 14 13 15 21 26 29 29 29
53 40 39 32 37 40 44 47 47 48 46 41 40 33 20 4 8 14 24 14 13 13 11 8 4 2 22 15 6 7 7 6 10 7 8 8 9 12 8 12 15 19 14 17 12 11 19 24 26 29 33 35 37 40
51 59 64 59 37 31 35 37 39 40 37 40 35 4 8 9 32 17 4 5 14 20 16 5 10 5 16 14 8 2 8 4 6 7 11 9 6 7 8 6 7 12 14 19 16 18 29 31 34 35 37 38 40 43
36 40 43 47 47 47 56 49 44 42 39 23 7 9 27 14 9 10 12 15 17 8 17 12 12 5 19 4 4 11 4 4 6 4 6 5 4 4 6 5 7 10 14 18 20 21 24 29 35 40 41 41 44 46
33 25 27 21 18 23 22 38 40 34 7 15 25 27 8 11 14 13 6 6 12 1 15 7 13 12 12 11 4 11 6 6 7 4 6 5 4 6 1 2 7 12 15 16 19 22 25 29 34 39 43 45 47 50
34 20 13 16 15 31 15 20 32 23 39 17 7 11 18 18 20 11 11 5 4 17 20 18 4 12 13 13 6 4 9 6 11 8 4 3 12 7 3 2 6 10 15 19 23 27 30 34 36 40 45 45 50 53
34 30 23 23 30 29 24 24 39 21 3 13 16 15 9 8 7 3 2 5 8 12 28 21 13 6 7 5 4 10 4 5 7 7 5 4 19 9 5 2 8 14 22 27 32 35 38 42 45 46 49 54 59 61
25 23 19 24 24 28 28 27 16 8 14 16 16 10 8 3 3 4 8 9 6 19 18 6 9 5 7 9 7 6 10 7 3 7 4 21 14 12 7 9 17 23 27 31 34 39 42 45 50 53 52 55 58 62
21 26 22 19 18 18 20 13 13 14 16 14 20 11 8 5 13 14 18 14 21 24 7 3 2 8 9 4 11 3 8 5 6 6 23 23 17 8 7 13 18 23 28 32 35 40 43 45 50 53 53 51 54 58
19 14 32 48 24 13 13 12 18 23 18 14 16 20 9 6 9 6 6 17 26 12 1 2 11 6 2 8 6 5 8 6 25 32 26 18 11 6 8 13 19 24 28 30 35 35 40 42 47 52 57 57 58 57
24 17 15 15 20 44 65 28 19 21 22 20 10 8 12 14 16 20 27 30 18 10 9 4 12 11 6 7 6 7 10 26 28 23 17 12 6 5 11 15 17 23 26 30 35 40 44 47 50 53 56 56 59 59
38 21 21 11 8 10 16 21 20 16 15 5 7 13 6 7 14 18 24 14 14 12 11 6 10 4 5 10 9 26 34 25 24 19 14 11 11 11 13 18 22 26 30 33 36 40 42 44 48 53 54 56 61 63
33 33 22 4 2 12 15 16 15 15 8 5 6 11 7 8 17 17 21 14 7 3 10 7 5 6 10 26 29 30 28 23 20 18 17 15 14 15 16 19 24 29 30 31 33 37 41 42 39 46 48 52 58 62
31 34 32 39 49 30 18 13 16 13 10 5 8 13 9 12 11 16 21 12 8 9 3 6 18 32 33 31 30 29 25 20 14 10 7 9 13 15 15 20 26 27 31 32 38 36 38 42 45 45 48 50 52 56
30 28 37 36 23 17 21 21 13 12 6 5 5 8 5 5 13 16 23 7 7 5 11 25 33 33 32 29 25 20 15 12 11 11 14 16 14 15 15 20 27 27 27 30 36 38 38 40 44 47 51 54 56 58
24 15 17 21 14 16 10 10 5 7 7 7 5 6 7 10 15 20 4 3 4 11 26 30 28 27 24 21 18 15 13 12 12 13 16 19 18 17 19 18 26 30 29 24 31 35 39 42 46 49 51 54 57 59
15 11 12 13 18 7 7 9 8 6 5 8 6 6 8 12 21 9 2 6 12 22 26 26 26 27 26 25 23 18 17 18 15 17 17 19 17 13 20 17 21 26 29 30 33 36 39 43 46 49 52 56 58 61
7 17 10 10 9 8 10 9 10 8 3 4 5 6 7 11 6 4 5 9 27 31 31 34 35 34 31 23 24 22 23 20 20 19 17 23 20 17 15 18 19 24 27 29 33 37 38 42 45 49 51 54 58 61
11 9 7 5 2 7 10 7 5 9 6 2 8 3 4 5 4 10 8 14 27 35 40 40 38 39 39 35 29 29 25 25 25 24 16 23 22 22 20 19 17 19 24 27 31 35 37 41 46 50 53 54 57 63
7 6 7 10 11 15 11 9 9 5 6 10 6 4 5 1 10 11 13 21 27 25 26 30 35 37 29 27 29 31 32 28 26 24 21 21 23 23 23 22 20 20 22 26 30 36 40 43 47 51 55 55 57 62
8 17 13 26 10 12 11 4 9 14 9 14 19 7 14 17 11 9 14 18 24 27 29 31 33 33 33 35 34 34 33 29 28 26 26 25 25 23 20 18 18 19 20 24 28 32 36 41 46 51 54 58 59 58
7 24 23 8 8 9 17 11 16 17 18 25 11 8 13 17 18 18 22 26 28 33 36 39 40 40 42 43 43 41 38 36 35 35 32 29 26 23 19 18 18 20 21 22 26 31 35 39 43 49 54 60 63 62
11 25 8 10 12 11 11 18 10 17 28 28 16 17 26 47 50 45 45 46 50 54 49 45 43 49 51 50 47 47 43 42 41 40 38 29 26 26 23 22 21 23 24 25 26 28 33 38 41 45 49 52 55 60
21 16 6 8 6 7 10 15 18 17 19 23 38 45 53 43 80 79 64 62 67 73 73 73 71 69 65 63 60 55 52 47 42 38 36 33 32 30 28 27 27 27 28 30 32 35 38 41 44 48 51 54 56 58
11 8 4 3 5 5 9 9 7 9 10 12 13 19 17 15 18 28 37 26 28 41 54 68 80 85 80 73 64 56 50 43 41 38 35 34 31 30 33 32 33 33 34 35 37 39 42 47 50 52 56 58 59 60
5 7 5 3 3 4 9 6 4 6 10 9 10 9 11 11 19 14 18 18 18 22 25 30 34 44 55 63 69 63 55 48 46 45 40 34 32 32 34 35 37 38 39 40 41 42 46 50 54 56 58 60 62 63
Wind_Direction_500mb
17 26 31 44 60 96 92 111 129 138 150 149 154 160 165 170 168 171 170 195 199 120 140 165 184 177 172 165 143 145 115 181 80 216 150 224 119 235 53 166 205 185 179 176 144 155 215 357 326 43 63 73 62 47
25 37 51 60 70 85 103 115 121 125 132 140 148 155 164 169 170 168 154 186 191 136 129 157 173 195 205 206 152 169 128 174 171 185 198 90 219 210 171 181 13 136 3 106 18 103 74 47 71 46 60 80 62 59
31 43 56 75 87 97 105 110 112 122 130 142 153 155 161 165 171 187 183 183 181 102 97 120 93 164 189 206 208 154 170 162 177 178 175 185 171 155 164 316 113 58 16 85 156 81 83 62 65 58 55 59 57 59
39 51 65 79 91 100 111 117 122 126 135 141 143 146 149 142 135 158 165 157 149 108 98 40 142 185 203 200 207 220 251 161 147 139 110 132 125 19 49 52 71 347 326 26 88 121 112 75 49 48 42 39 45 50
49 58 73 86 95 103 110 117 123 127 133 141 145 155 158 171 173 161 152 154 78 108 139 138 94 91 141 180 177 186 176 160 123 99 58 54 44 37 129 75 42 1 10 5 57 30 12 85 58 42 33 25 23 32
60 62 78 93 101 109 116 121 126 131 137 139 142 147 138 151 146 148 122 106 113 91 64 109 95 78 110 108 131 151 167 133 71 87 63 70 59 323 78 74 35 14 34 34 4 344 63 100 53 29 23 16 19 24
70 72 78 96 108 117 122 127 131 133 135 139 147 151 148 140 155 179 154 149 138 163 171 100 14 31 64 92 95 84 98 74 76 65 57 77 44 47 57 73 8 4 31 26 28 142 37 48 353 6 12 15 16 13
84 85 88 101 114 124 131 135 135 136 140 152 155 153 154 130 93 97 107 119 143 141 95 77 310 58 24 32 66 48 69 52 37 91 66 46 38 50 68 34 19 12 27 6 33 57 45 33 20 16 12 8 9 3
89 93 105 110 120 129 133 141 149 153 158 157 153 161 152 147 67 106 113 117 85 92 102 59 39 246 358 14 21 53 81 76 46 63 47 55 22 49 14 7 17 18 25 352 28 44 35 30 22 15 9 5 1 356
71 89 104 107 116 130 136 146 153 158 163 163 160 102 74 86 129 122 63 64 41 37 51 78 339 297 343 346 26 61 56 66 61 54 84 58 75 113 33 17 20 22 23 26 44 16 15 16 8 5 1 356 350 345
65 74 90 105 110 124 142 153 158 164 166 157 81 63 112 79 51 48 53 39 352 53 21 357 5 314 13 22 357 25 83 27 74 17 88 67 77 99 360 19 37 39 34 33 29 20 9 359 352 348 347 344 339 335
67 90 104 108 115 108 150 174 179 177 160 104 117 116 79 48 49 63 34 14 38 127 343 331 314 333 342 359 4 6 76 40 70 11 71 72 159 183 215 35 45 37 29 19 8 358 350 344 336 330 327 325 323 321
43 44 39 50 163 168 136 159 172 170 136 125 92 65 15 358 44 40 354 23 30 346 359 346 322 339 347 12 55 59 74 71 129 44 84 153 152 180 187 71 37 6 350 342 336 331 327 323 321 320 320 319 315 313
38 45 74 97 98 136 157 140 145 138 65 56 44 38 43 8 58 51 296 301 308 314 330 326 296 333 324 38 328 80 10 53 69 69 209 182 186 187 177 263 315 318 320 324 328 328 328 326 325 325 323 322 320 319
29 47 68 78 157 164 170 170 188 317 59 64 40 60 57 251 277 280 290 277 280 308 320 307 273 326 5 69 33 105 43 34 187 186 189 162 168 182 209 290 312 315 316 320 324 327 329 327 324 323 324 322 319 315
54 50 64 89 95 107 149 139 149 90 65 66 55 74 48 42 348 347 342 336 342 337 326 298 327 59 33 105 49 125 95 205 218 203 154 160 164 182 272 299 303 308 317 325 326 325 325 326 322 321 322 322 317 314
58 68 54 57 66 177 166 84 54 53 56 54 47 40 76 168 204 217 309 344 340 335 4 112 56 195 147 60 50 191 170 202 156 145 149 158 176 219 292 319 324 324 326 326 324 327 325 326 324 324 323 327 323 322
64 74 78 61 54 60 61 52 75 65 61 62 88 27 47 39 8 13 2 3 9 22 14 97 126 47 94 108 276 217 155 137 140 145 157 174 196 282 317 323 319 320 324 326 328 331 329 328 327 325 323 323 322 323
41 57 52 60 93 60 59 46 46 87 68 53 23 6 7 19 12 5 6 11 41 74 114 113 73 135 207 206 168 152 152 149 163 175 191 215 237 260 280 300 315 324 330 331 330 330 329 328 325 324 325 324 323 327
37 33 34 61 157 78 75 54 59 83 103 98 17 2 11 4 354 2 8 27 51 73 54 52 182 175 132 136 142 144 150 160 172 190 213 225 247 270 288 299 315 327 335 333 328 328 329 331 327 324 326 327 326 327
53 57 56 67 65 66 80 68 64 75 105 79 13 9 356 342 354 360 4 4 53 42 51 104 125 126 133 141 150 157 164 173 180 191 222 214 262 283 298 306 311 325 327 333 331 339 333 329 331 332 330 331 329 330
13 35 42 38 57 69 69 49 82 98 88 80 30 2 352 356 348 358 344 25 65 84 129 156 153 155 157 158 162 166 176 195 232 261 278 290 302 304 302 303 308 319 329 333 330 335 339 336 337 338 335 336 334 333
360 18 42 35 65 51 60 59 70 52 78 355 353 26 351 354 343 347 356 42 125 159 162 167 169 167 172 182 188 199 217 238 258 272 276 286 298 306 307 310 306 319 331 340 332 340 343 343 342 341 339 338 335 335
22 57 42 46 45 90 81 50 50 55 54 28 41 352 334 322 340 24 263 271 201 191 192 189 191 195 204 211 215 216 231 244 253 260 272 280 291 296 294 305 306 315 324 334 336 340 340 340 339 339 338 337 337 335
72 16 45 29 61 90 50 15 358 50 70 338 37 331 324 341 19 349 234 249 208 207 204 208 212 217 224 224 221 220 234 244 254 261 253 270 282 293 297 304 309 312 321 328 334 339 341 339 340 339 340 339 337 336
75 4 63 168 38 108 183 118 179 180 143 131 228 279 351 70 43 248 232 222 208 207 212 217 217 218 226 226 226 227 235 243 250 260 252 267 280 290 301 305 307 312 328 332 336 339 342 343 343 342 343 343 342 338
106 231 134 129 122 126 92 101 122 122 148 186 201 125 81 116 247 249 227 217 214 221 223 223 225 229 233 226 226 221 230 239 250 259 262 267 275 283 289 298 310 315 324 328 333 336 340 344 344 344 344 348 348 343
118 157 155 161 150 163 131 117 159 193 206 172 146 184 181 198 232 215 213 217 219 225 228 229 229 229 226 227 230 229 232 236 246 256 261 265 270 272 279 285 292 304 316 322 327 333 336 339 340 341 342 343 347 348
124 145 137 101 136 199 211 183 206 194 184 176 172 219 236 225 231 229 231 231 236 237 238 237 234 231 228 229 231 233 234 238 244 251 257 259 259 271 273 275 283 294 306 317 322 327 331 335 337 339 342 342 344 344
153 164 142 157 162 215 198 199 202 203 200 208 233 262 264 263 266 262 261 256 251 253 257 253 247 240 239 237 237 238 240 243 245 249 255 258 268 263 267 273 281 290 298 305 312 317 320 326 330 332 333 336 338 340
158 175 162 186 217 212 215 220 235 244 245 246 248 253 262 280 285 288 283 275 264 254 250 246 242 240 238 238 239 239 241 245 252 255 254 253 253 259 267 273 279 286 293 300 307 313 318 322 326 329 331 334 336 336
162 182 169 205 248 231 202 207 226 236 249 249 253 248 274 279 277 287 282 287 275 261 257 253 249 246 244 244 245 246 248 246 247 251 250 247 248 255 263 271 277 284 291 297 303 308 313 317 320 324 327 330 332 333
159 177 202 267 260 239 207 215 245 281 254 260 260 257 239 248 254 259 277 283 294 304 288 273 264 250 246 242 241 242 240 238 242 243 245 248 251 257 264 270 276 283 288 294 299 304 307 310 314 318 320 322 324 327
Wind_Speed_850mb
79 79 86 86 79 78 72 73 92 95 118 137 134 121 117 111 86 65 50 42 27 8 14 19 30 27 18 13 8 10 10 1 1 2 3 6 4 8 5 6 12 13 18 11 9 7 10 36 9 1 12 26 26 31
70 69 73 82 88 85 90 107 123 131 137 125 116 107 106 101 85 51 42 43 30 13 10 20 20 31 48 34 14 26 10 9 14 5 2 5 3 2 8 7 9 5 5 6 8 8 14 28 35 26 26 26 27 25
64 62 64 69 83 91 100 107 107 110 108 106 104 99 96 77 60 55 42 33 15 17 15 10 7 7 24 33 46 10 10 16 12 12 6 4 4 4 4 1 8 8 24 8 9 13 22 32 30 31 29 27 25 25
59 57 57 66 72 77 87 95 97 93 97 104 100 88 81 61 43 38 42 25 13 15 8 7 6 6 12 22 32 32 10 17 21 10 4 3 4 13 6 4 10 11 20 12 13 19 29 30 29 26 23 23 24 22
50 51 53 58 67 71 78 83 85 84 86 87 78 80 54 50 36 24 26 11 13 4 9 9 20 12 9 11 16 10 26 23 10 5 3 7 9 14 3 10 12 23 13 8 6 15 9 19 21 28 24 25 26 24
46 43 46 49 55 60 65 68 73 73 72 63 58 59 46 37 38 36 15 10 12 20 10 4 4 17 24 23 21 24 21 7 9 9 10 11 14 14 6 7 18 23 21 32 12 13 15 15 20 25 22 25 29 26
46 40 41 42 48 53 55 57 60 61 59 57 58 52 32 37 35 13 11 18 11 15 7 4 4 11 13 17 11 11 11 13 9 11 11 8 15 16 7 7 18 21 14 27 26 14 11 27 12 21 23 27 28 23
46 42 36 38 41 44 48 50 52 52 52 53 48 41 25 35 27 25 30 23 23 9 7 5 3 5 22 11 5 8 8 11 23 13 11 8 10 15 10 14 16 19 7 20 26 20 14 13 15 21 26 29 29 29
53 40 39 32 37 40 44 47 47 48 46 41 40 33 20 4 8 14 24 14 13 13 11 8 4 2 22 15 6 7 7 6 10 7 8 8 9 12 8 12 15 19 14 17 12 11 19 24 26 29 33 35 37 40
51 59 64 59 37 31 35 37 39 40 37 40 35 4 8 9 32 17 4 5 14 20 16 5 10 5 16 14 8 2 8 4 6 7 11 9 6 7 8 6 7 12 14 19 16 18 29 31 34 35 37 38 40 43
36 40 43 47 47 47 56 49 44 42 39 23 7 9 27 14 9 10 12 15 17 8 17 12 12 5 19 4 4 11 4 4 6 4 6 5 4 4 6 5 7 10 14 18 20 21 24 29 35 40 41 41 44 46
33 25 27 21 18 23 22 38 40 34 7 15 25 27 8 11 14 13 6 6 12 1 15 7 13 12 12 11 4 11 6 6 7 4 6 5 4 6 1 2 7 12 15 16 19 22 25 29 34 39 43 45 47 50
34 20 13 16 15 31 15 20 32 23 39 17 7 11 18 18 20 11 11 5 4 17 20 18 4 12 13 13 6 4 9 6 11 8 4 3 12 7 3 2 6 10 15 19 23 27 30 34 36 40 45 45 50 53
34 30 23 23 30 29 24 24 39 21 3 13 16 15 9 8 7 3 2 5 8 12 28 21 13 6 7 5 4 10 4 5 7 7 5 4 19 9 5 2 8 14 22 27 32 35 38 42 45 46 49 54 59 61
25 23 19 24 24 28 28 27 16 8 14 16 16 10 8 3 3 4 8 9 6 19 18 6 9 5 7 9 7 6 10 7 3 7 4 21 14 12 7 9 17 23 27 31 34 39 42 45 50 53 52 55 58 62
21 26 22 19 18 18 20 13 13 14 16 14 20 11 8 5 13 14 18 14 21 24 7 3 2 8 9 4 11 3 8 5 6 6 23 23 17 8 7 13 18 23 28 32 35 40 43 45 50 53 53 51 54 58
19 14 32 48 24 13 13 12 18 23 18 14 16 20 9 6 9 6 6 17 26 12 1 2 11 6 2 8 6 5 8 6 25 32 26 18 11 6 8 13 19 24 28 30 35 35 40 42 47 52 57 57 58 57
24 17 15 15 20 44 65 28 19 21 22 20 10 8 12 14 16 20 27 30 18 10 9 4 12 11 6 7 6 7 10 26 28 23 17 12 6 5 11 15 17 23 26 30 35 40 44 47 50 53 56 56 59 59
38 21 21 11 8 10 16 21 20 16 15 5 7 13 6 7 14 18 24 14 14 12 11 6 10 4 5 10 9 26 34 25 24 19 14 11 11 11 13 18 22 26 30 33 36 40 42 44 48 53 54 56 61 63
33 33 22 4 2 12 15 16 15 15 8 5 6 11 7 8 17 17 21 14 7 3 10 7 5 6 10 26 29 30 28 23 20 18 17 15 14 15 16 19 24 29 30 31 33 37 41 42 39 46 48 52 58 62
31 34 32 39 49 30 18 13 16 13 10 5 8 13 9 12 11 16 21 12 8 9 3 6 18 32 33 31 30 29 25 20 14 10 7 9 13 15 15 20 26 27 31 32 38 36 38 42 45 45 48 50 52 56
30 28 37 36 23 17 21 21 13 12 6 5 5 8 5 5 13 16 23 7 7 5 11 25 33 33 32 29 25 20 15 12 11 11 14 16 14 15 15 20 27 27 27 30 36 38 38 40 44 47 51 54 56 58
24 15 17 21 14 16 10 10 5 7 7 7 5 6 7 10 15 20 4 3 4 11 26 30 28 27 24 21 18 15 13 12 12 13 16 19 18 17 19 18 26 30 29 24 31 35 39 42 46 49 51 54 57 59
15 11 12 13 18 7 7 9 8 6 5 8 6 6 8 12 21 9 2 6 12 22 26 26 26 27 26 25 23 18 17 18 15 17 17 19 17 13 20 17 21 26 29 30 33 36 39 43 46 49 52 56 58 61
7 17 10 10 9 8 10 9 10 8 3 4 5 6 7 11 6 4 5 9 27 31 31 34 35 34 31 23 24 22 23 20 20 19 17 23 20 17 15 18 19 24 27 29 33 37 38 42 45 49 51 54 58 61
11 9 7 5 2 7 10 7 5 9 6 2 8 3 4 5 4 10 8 14 27 35 40 40 38 39 39 35 29 29 25 25 25 24 16 23 22 22 20 19 17 19 24 27 31 35 37 41 46 50 53 54 57 63
7 6 7 10 11 15 11 9 9 5 6 10 6 4 5 1 10 11 13 21 27 25 26 30 35 37 29 27 29 31 32 28 26 24 21 21 23 23 23 22 20 20 22 26 30 36 40 43 47 51 55 55 57 62
8 17 13 26 10 12 11 4 9 14 9 14 19 7 14 17 11 9 14 18 24 27 29 31 33 33 33 35 34 34 33 29 28 26 26 25 25 23 20 18 18 19 20 24 28 32 36 41 46 51 54 58 59 58
7 24 23 8 8 9 17 11 16 17 18 25 11 8 13 17 18 18 22 26 28 33 36 39 40 40 42 43 43 41 38 36 35 35 32 29 26 23 19 18 18 20 21 22 26 31 35 39 43 49 54 60 63 62
11 25 8 10 12 11 11 18 10 17 28 28 16 17 26 47 50 45 45 46 50 54 49 45 43 49 51 50 47 47 43 42 41 40 38 29 26 26 23 22 21 23 24 25 26 28 33 38 41 45 49 52 55 60
21 16 6 8 6 7 10 15 18 17 19 23 38 45 53 43 80 79 64 62 67 73 73 73 71 69 65 63 60 55 52 47 42 38 36 33 32 30 28 27 27 27 28 30 32 35 38 41 44 48 51 54 56 58
11 8 4 3 5 5 9 9 7 9 10 12 13 19 17 15 18 28 37 26 28 41 54 68 80 85 80 73 64 56 50 43 41 38 35 34 31 30 33 32 33 33 34 35 37 39 42 47 50 52 56 58 59 60
5 7 5 3 3 4 9 6 4 6 10 9 10 9 11 11 19 14 18 18 18 22 25 30 34 44 55 63 69 63 55 48 46 45 40 34 32 32 34 35 37 38 39 40 41 42 46 50 54 56 58 60 62 63
Wind_Direction_850mb
17 26 31 44 60 96 92 111 129 138 150 149 154 160 165 170 168 171 170 195 199 120 140 165 184 177 172 165 143 145 115 181 80 216 150 224 119 235 53 166 205 185 179 176 144 155 215 357 326 43 63 73 62 47
25 37 51 60 70 85 103 115 121 125 132 140 148 155 164 169 170 168 154 186 191 136 129 157 173 195 205 206 152 169 128 174 171 185 198 90 219 210 171 181 13 136 3 106 18 103 74 47 71 46 60 80 62 59
31 43 56 75 87 97 105 110 112 122 130 142 153 155 161 165 171 187 183 183 181 102 97 120 93 164 189 206 208 154 170 162 177 178 175 185 171 155 164 316 113 58 16 85 156 81 83 62 65 58 55 59 57 59
39 51 65 79 91 100 111 117 122 126 135 141 143 146 149 142 135 158 165 157 149 108 98 40 142 185 203 200 207 220 251 161 147 139 110 132 125 19 49 52 71 347 326 26 88 121 112 75 49 48 42 39 45 50
49 58 73 86 95 103 110 117 123 127 133 141 145 155 158 171 173 161 152 154 78 108 139 138 94 91 141 180 177 186 176 160 123 99 58 54 44 37 129 75 42 1 10 5 57 30 12 85 58 42 33 25 23 32
60 62 78 93 101 109 116 121 126 131 137 139 142 147 138 151 146 148 122 106 113 91 64 109 95 78 110 108 131 151 167 133 71 87 63 70 59 323 78 74 35 14 34 34 4 344 63 100 53 29 23 16 19 24
70 72 78 96 108 117 122 127 131 133 135 139 147 151 148 140 155 179 154 149 138 163 171 100 14 31 64 92 95 84 98 74 76 65 57 77 44 47 57 73 8 4 31 26 28 142 37 48 353 6 12 15 16 13
84 85 88 101 114 124 131 135 135 136 140 152 155 153 154 130 93 97 107 119 143 141 95 77 310 58 24 32 66 48 69 52 37 91 66 46 38 50 68 34 19 12 27 6 33 57 45 33 20 16 12 8 9 3
89 93 105 110 120 129 133 141 149 153 158 157 153 161 152 147 67 106 113 117 85 92 102 59 39 246 358 14 21 53 81 76 46 63 47 55 22 49 14 7 17 18 25 352 28 44 35 30 22 15 9 5 1 356
71 89 104 107 116 130 136 146 153 158 163 163 160 102 74 86 129 122 63 64 41 37 51 78 339 297 343 346 26 61 56 66 61 54 84 58 75 113 33 17 20 22 23 26 44 16 15 16 8 5 1 356 350 345
65 74 90 105 110 124 142 153 158 164 166 157 81 63 112 79 51 48 53 39 352 53 21 357 5 314 13 22 357 25 83 27 74 17 88 67 77 99 360 19 37 39 34 33 29 20 9 359 352 348 347 344 339 335
67 90 104 108 115 108 150 174 179 177 160 104 117 116 79 48 49 63 34 14 38 127 343 331 314 333 342 359 4 6 76 40 70 11 71 72 159 183 215 35 45 37 29 19 8 358 350 344 336 330 327 325 323 321
43 44 39 50 163 168 136 159 172 170 136 125 92 65 15 358 44 40 354 23 30 346 359 346 322 339 347 12 55 59 74 71 129 44 84 153 152 180 187 71 37 6 350 342 336 331 327 323 321 320 320 319 315 313
38 45 74 97 98 136 157 140 145 138 65 56 44 38 43 8 58 51 296 301 308 314 330 326 296 333 324 38 328 80 10 53 69 69 209 182 186 187 177 263 315 318 320 324 328 328 328 326 325 325 323 322 320 319
29 47 68 78 157 164 170 170 188 317 59 64 40 60 57 251 277 280 290 277 280 308 320 307 273 326 5 69 33 105 43 34 187 186 189 162 168 182 209 290 312 315 316 320 324 327 329 327 324 323 324 322 319 315
54 50 64 89 95 107 149 139 149 90 65 66 55 74 48 42 348 347 342 336 342 337 326 298 327 59 33 105 49 125 95 205 218 203 154 160 164 182 272 299 303 308 317 325 326 325 325 326 322 321 322 322 317 314
58 68 54 57 66 177 166 84 54 53 56 54 47 40 76 168 204 217 309 344 340 335 4 112 56 195 147 60 50 191 170 202 156 145 149 158 176 219 292 319 324 324 326 326 324 327 325 326 324 324 323 327 323 322
64 74 78 61 54 60 61 52 75 65 61 62 88 27 47 39 8 13 2 3 9 22 14 97 126 47 94 108 276 217 155 137 140 145 157 174 196 282 317 323 319 320 324 326 328 331 329 328 327 325 323 323 322 323
41 57 52 60 93 60 59 46 46 87 68 53 23 6 7 19 12 5 6 11 41 74 114 113 73 135 207 206 168 152 152 149 163 175 191 215 237 260 280 300 315 324 330 331 330 330 329 328 325 324 325 324 323 327
37 33 34 61 157 78 75 54 59 83 103 98 17 2 11 4 354 2 8 27 51 73 54 52 182 175 132 136 142 144 150 160 172 190 213 225 247 270 288 299 315 327 335 333 328 328 329 331 327 324 326 327 326 327
53 57 56 67 65 66 80 68 64 75 105 79 13 9 356 342 354 360 4 4 53 42 51 104 125 126 133 141 150 157 164 173 180 191 222 214 262 283 298 306 311 325 327 333 331 339 333 329 331 332 330 331 329 330
13 35 42 38 57 69 69 49 82 98 88 80 30 2 352 356 348 358 344 25 65 84 129 156 153 155 157 158 162 166 176 195 232 261 278 290 302 304 302 303 308 319 329 333 330 335 339 336 337 338 335 336 334 333
360 18 42 35 65 51 60 59 70 52 78 355 353 26 351 354 343 347 356 42 125 159 162 167 169 167 172 182 188 199 217 238 258 272 276 286 298 306 307 310 306 319 331 340 332 340 343 343 342 341 339 338 335 335
22 57 42 46 45 90 81 50 50 55 54 28 41 352 334 322 340 24 263 271 201 191 192 189 191 195 204 211 215 216 231 244 253 260 272 280 291 296 294 305 306 315 324 334 336 340 340 340 339 339 338 337 337 335
72 16 45 29 61 90 50 15 358 50 70 338 37 331 324 341 19 349 234 249 208 207 204 208 212 217 224 224 221 220 234 244 254 261 253 270 282 293 297 304 309 312 321 328 334 339 341 339 340 339 340 339 337 336
75 4 63 168 38 108 183 118 179 180 143 131 228 279 351 70 43 248 232 222 208 207 212 217 217 218 226 226 226 227 235 243 250 260 252 267 280 290 301 305 307 312 328 332 336 339 342 343 343 342 343 343 342 338
106 231 134 129 122 126 92 101 122 122 148 186 201 125 81 116 247 249 227 217 214 221 223 223 225 229 233 226 226 221 230 239 250 259 262 267 275 283 289 298 310 315 324 328 333 336 340 344 344 344 344 348 348 343
118 157 155 161 150 163 131 117 159 193 206 172 146 184 181 198 232 215 213 217 219 225 228 229 229 229 226 227 230 229 232 236 246 256 261 265 270 272 279 285 292 304 316 322 327 333 336 339 340 341 342 343 347 348
124 145 137 101 136 199 211 183 206 194 184 176 172 219 236 225 231 229 231 231 236 237 238 237 234 231 228 229 231 233 234 238 244 251 257 259 259 271 273 275 283 294 306 317 322 327 331 335 337 339 342 342 344 344
153 164 142 157 162 215 198 199 202 203 200 208 233 262 264 263 266 262 261 256 251 253 257 253 247 240 239 237 237 238 240 243 245 249 255 258 268 263 267 273 281 290 298 305 312 317 320 326 330 332 333 336 338 340
158 175 162 186 217 212 215 220 235 244 245 246 248 253 262 280 285 288 283 275 264 254 250 246 242 240 238 238 239 239 241 245 252 255 254 253 253 259 267 273 279 286 293 300 307 313 318 322 326 329 331 334 336 336
162 182 169 205 248 231 202 207 226 236 249 249 253 248 274 279 277 287 282 287 275 261 257 253 249 246 244 244 245 246 248 246 247 251 250 247 248 255 263 271 277 284 291 297 303 308 313 317 320 324 327 330 332 333
159 177 202 267 260 239 207 215 245 281 254 260 260 257 239 248 254 259 277 283 294 304 288 273 264 250 246 242 241 242 240 238 242 243 245 248 251 257 264 270 276 283 288 294 299 304 307 310 314 318 320 322 324 327